[[{"header":{"parameterUnit":"m.s-1","parameterCategory":1,"la1":30.2991,"la2":30.254,"lo1":-89.0895,"lo2":-89.0444,"dy":0.0017,"dx":0.0017,"nx":28,"ny":28,"refTime":"2024-05-15T03:00:00:Z","depth":0,"parameterNumber":2,"parameterNumberName":"U-component_of_WINDS"},"data":[0,0,0,0,0,0,0,0,0,0,0,0,0,0,0,0,0,0,0,0,0,0,0,0,0,0,0,0,0,0,0,0,0,0,0,0,0,0,0,0,0,0,0,0,0,0,0,0,0,0,0,0,0,0,0,0,0,0,2.8492,2.8493,0,2.8563,2.8564,2.8565,2.8596,2.8596,2.8596,2.8596,2.8673,2.8675,2.8677,0,0,0,0,0,0,0,0,0,0,0,0,0,2.8388,2.839,2.8492,2.8493,2.8494,2.8563,2.8564,2.8565,2.8596,2.8596,2.8596,2.8596,2.8672,2.8675,2.8678,0,0,0,0,0,0,0,0,0,0,0,0,0,2.8444,2.839,2.8492,2.8517,2.852,2.8563,2.8564,2.8565,2.8596,2.8596,2.8596,2.8596,2.8672,2.8675,2.8678,2.8701,0,0,2.8688,2.8689,0,0,0,0,0,0,0,0,2.844,2.8447,2.8513,2.8516,2.8519,2.857,2.8556,2.8611,2.8596,2.8568,2.8596,2.8596,2.8639,2.8645,2.8659,2.8705,2.8708,2.8688,2.869,2.8692,2.8693,0,0,0,0,0,0,0,2.8436,2.8444,2.852,2.8514,2.8518,2.8527,2.8535,2.8566,2.8604,2.857,2.8572,2.858,2.8641,2.8656,2.8661,2.871,2.8688,2.8691,2.8693,2.8694,2.8781,2.8781,0,0,0,0,0,0,2.8428,2.8441,2.8518,2.8522,2.8478,2.8529,2.8538,2.8554,2.8603,2.8611,2.858,2.8581,2.8651,2.8657,2.8664,2.8696,2.8692,2.8695,2.8696,2.8781,2.8781,2.8781,0,0,0,0,0,0,2.8425,2.8434,2.8515,2.8482,2.8493,2.8531,2.8549,2.8556,2.8571,2.8611,2.8618,2.8588,2.8651,2.866,2.8692,2.8699,2.8696,2.8699,2.878,2.8781,2.8781,2.876,0,0,0,0,0,0,2.8422,2.8433,2.8441,2.8482,2.8495,2.854,2.855,2.8557,2.8576,2.8578,2.8621,2.8628,2.8651,2.8687,2.8695,2.8704,2.8702,2.878,2.878,2.8781,2.876,2.8759,2.8759,0,0,0,0,0,2.8418,2.8433,2.8441,2.845,2.8505,2.854,2.8548,2.8574,2.8576,2.8585,2.8612,2.8626,2.8697,2.869,2.87,2.8709,2.8779,2.878,2.8781,2.876,2.8759,2.8759,0,0,0,0,0,0,2.8392,2.8438,2.8449,2.8476,2.8504,2.8545,2.8558,2.8572,2.8601,2.8602,2.8634,2.8643,2.8674,2.8695,2.8686,2.8736,2.874,2.8742,2.872,2.872,2.872,2.8714,2.8704,0,0,0,0,0,2.839,2.8413,2.8452,2.8473,2.8486,2.852,2.8536,2.8553,2.8584,2.8596,2.8625,2.8656,2.8685,2.8704,2.8733,2.8763,2.8774,2.8775,2.8774,2.8773,2.8776,2.8795,2.8796,2.8784,2.8784,2.8784,0,0,2.8385,2.8413,2.8425,2.8469,2.8492,2.8517,2.8529,2.8555,2.8574,2.8601,2.8633,2.8656,2.8692,2.8724,2.8739,2.8743,2.8781,2.8774,2.8774,2.8776,2.8796,2.8797,2.8798,2.8785,2.8784,2.8784,0,0,2.8388,2.8411,2.8431,2.8455,2.849,2.8512,2.8517,2.8557,2.8573,2.8606,2.8627,2.8651,2.8701,2.8726,2.8746,2.8761,2.8776,2.877,2.8767,2.8786,2.8787,2.8788,2.8795,2.8796,2.8772,2.8772,2.8772,0,2.8378,2.8414,2.844,2.8465,2.8484,2.8509,2.8531,2.8553,2.8596,2.861,2.8613,2.8676,2.8703,2.8742,2.8745,2.876,2.8768,2.8765,2.8784,2.8786,2.8787,2.8794,2.8796,2.8771,2.8771,2.8771,2.8771,0,2.8401,2.8426,2.8439,2.8479,2.85,2.8523,2.8555,2.8573,2.8589,2.8612,2.8646,2.8679,2.8716,2.8726,2.8742,2.8768,2.8769,2.8778,2.8782,2.8787,2.8794,2.8796,2.8769,2.877,2.877,2.877,0,0,2.8389,2.8444,2.8448,2.8468,2.8509,2.8531,2.8556,2.8591,2.8607,2.8637,2.866,2.8702,2.8711,2.8733,2.8752,2.8769,2.878,2.8775,2.8777,2.8776,2.8813,2.8807,2.8809,2.8791,2.8791,2.8792,2.881,0,2.8399,2.8443,2.8469,2.8504,2.8529,2.8553,2.8576,2.8605,2.8627,2.8653,2.8679,2.8708,2.8716,2.873,2.8747,2.8775,2.8788,2.8774,2.8815,2.8816,2.8805,2.8812,2.8806,2.8821,2.8813,2.8813,2.8814,0,2.8416,2.8444,2.8482,2.8522,2.8533,2.8553,2.8588,2.8612,2.8646,2.8662,2.8687,2.8707,2.8737,2.8739,2.8782,2.8772,2.879,2.8807,2.8808,2.8813,2.8815,2.8819,2.8827,2.8829,2.8818,2.8818,2.8817,0,2.8405,2.8453,2.8482,2.8498,2.8545,2.8558,2.8579,2.8613,2.8633,2.8664,2.8678,2.8713,2.8732,2.876,2.879,2.8788,2.883,2.8835,2.8846,2.8845,2.8853,2.8853,2.8865,2.8864,2.8864,2.8864,2.8864,0,2.8414,2.8436,2.8478,2.8495,2.8522,2.8551,2.8577,2.86,2.8631,2.8655,2.8679,2.8701,2.8739,2.8767,2.879,2.8824,2.8832,2.8847,2.8853,2.8845,2.8843,2.8857,2.8857,2.8865,2.8865,2.8864,2.8864,0,2.8406,2.8434,2.8467,2.851,2.8521,2.8539,2.8576,2.8595,2.8619,2.865,2.8659,2.8697,2.8731,2.8763,2.881,2.8826,2.8859,2.8867,2.8847,2.8851,2.886,2.8859,2.8883,2.8888,2.8882,2.8882,2.8882,0,2.8409,2.8427,2.8471,2.8488,2.8508,2.8536,2.8556,2.8587,2.8608,2.8649,2.8664,2.87,2.873,2.8785,2.8818,2.8854,2.8863,2.8869,2.8868,2.886,2.8864,2.8863,2.8866,2.8868,2.8868,2.8868,2.8868,0,2.8413,2.8427,2.8455,2.8488,2.8511,2.854,2.8569,2.8582,2.8619,2.8641,2.8676,2.8699,2.8747,2.8783,2.8823,2.8846,2.8864,2.8868,2.8873,2.8865,2.8853,2.8861,2.8846,2.8867,2.8867,2.8867,2.8867,2.8867,2.8412,2.8429,2.8463,2.8494,2.8519,2.8546,2.8566,2.8593,2.8622,2.8662,2.8679,2.8715,2.8751,2.8806,2.883,2.886,2.8864,2.887,2.8872,2.8873,2.8872,2.8848,2.8867,2.8867,2.8867,2.8868,2.8868,0,2.8418,2.8441,2.8469,2.8509,2.8534,2.8547,2.858,2.8601,2.8631,2.8663,2.8692,2.8733,2.8769,2.8805,2.8843,2.886,2.887,2.8869,2.8869,2.8874,2.8866,2.8858,2.8861,2.8861,2.8861,2.8861,2.8861,2.8861,2.8424,2.8454,2.8472,2.8516,2.854,2.8574,2.8592,2.8618,2.8644,2.8688,2.8717,2.874,2.8775,2.8816,2.885,2.886,2.8873,2.8871,2.8883,2.8874,2.8875,2.8875,2.8868,2.8873,2.8873,2.8889,2.8889,2.889]},{"header":{"parameterUnit":"m.s-1","parameterCategory":1,"la1":30.2991,"la2":30.254,"lo1":-89.0895,"lo2":-89.0444,"dy":0.0017,"dx":0.0017,"nx":28,"ny":28,"refTime":"2024-05-15T03:00:00:Z","depth":0,"parameterNumber":3,"parameterNumberName":"V-component_of_WINDS"},"data":[0,0,0,0,0,0,0,0,0,0,0,0,0,0,0,0,0,0,0,0,0,0,0,0,0,0,0,0,0,0,0,0,0,0,0,0,0,0,0,0,0,0,0,0,0,0,0,0,0,0,0,0,0,0,0,0,0,0,0.1039,0.1039,0,0.1067,0.1067,0.1067,0.1022,0.1021,0.1019,0.1017,0.1049,0.1051,0.1053,0,0,0,0,0,0,0,0,0,0,0,0,0,0.0949,0.0951,0.1039,0.1039,0.104,0.1067,0.1067,0.1067,0.1022,0.102,0.1019,0.1017,0.1048,0.1051,0.1053,0,0,0,0,0,0,0,0,0,0,0,0,0,0.0983,0.0951,0.1039,0.102,0.1019,0.1066,0.1067,0.1067,0.1023,0.102,0.1018,0.1016,0.1047,0.105,0.1054,0.1122,0,0,0.1064,0.1066,0,0,0,0,0,0,0,0,0.0981,0.0987,0.1023,0.1022,0.102,0.1038,0.1046,0.1086,0.1023,0.1022,0.1017,0.1015,0.1047,0.1051,0.1061,0.1123,0.1124,0.1065,0.1067,0.1068,0.1069,0,0,0,0,0,0,0,0.0979,0.0985,0.105,0.1023,0.1022,0.1011,0.1013,0.1054,0.1047,0.1021,0.1018,0.1022,0.1046,0.1058,0.1061,0.1125,0.1064,0.1068,0.107,0.1071,0.124,0.1242,0,0,0,0,0,0,0.0979,0.0984,0.1049,0.1051,0.0995,0.1015,0.1017,0.1035,0.1047,0.1046,0.1024,0.102,0.1053,0.1057,0.1062,0.114,0.1068,0.1071,0.1073,0.1238,0.1241,0.1243,0,0,0,0,0,0,0.0977,0.0985,0.1048,0.1016,0.1023,0.1019,0.1039,0.1037,0.1048,0.1048,0.1047,0.1037,0.1051,0.1058,0.1106,0.114,0.1073,0.1076,0.1235,0.1239,0.1242,0.1297,0,0,0,0,0,0,0.0975,0.0985,0.101,0.1017,0.1025,0.1091,0.1041,0.1039,0.1054,0.1049,0.106,0.106,0.105,0.1101,0.111,0.1144,0.1079,0.1232,0.1236,0.1241,0.1292,0.1302,0.1311,0,0,0,0,0,0.0971,0.1026,0.1012,0.102,0.1057,0.1093,0.1098,0.1085,0.1057,0.1082,0.1082,0.106,0.1135,0.1107,0.1116,0.1151,0.1229,0.1235,0.124,0.1288,0.13,0.131,0,0,0,0,0,0,0.1026,0.1027,0.1011,0.107,0.1081,0.1086,0.1118,0.1099,0.112,0.1114,0.1098,0.1101,0.1152,0.1157,0.1125,0.1216,0.1178,0.1185,0.1211,0.1222,0.1231,0.1229,0.1081,0,0,0,0,0,0.1044,0.1073,0.1073,0.1124,0.1131,0.1123,0.1139,0.1127,0.1139,0.1144,0.1148,0.1161,0.1187,0.1205,0.123,0.1293,0.1293,0.1322,0.1331,0.1338,0.1345,0.1375,0.1387,0.1261,0.1261,0.1261,0,0,0.1083,0.1087,0.1107,0.1135,0.1143,0.1173,0.1128,0.1162,0.1184,0.115,0.1195,0.1198,0.1211,0.1266,0.1291,0.1272,0.138,0.1345,0.1351,0.1354,0.1382,0.1394,0.1405,0.1265,0.1264,0.1264,0,0,0.1169,0.1176,0.1218,0.1226,0.1237,0.1231,0.1242,0.1248,0.1248,0.1293,0.1267,0.1292,0.1339,0.1349,0.136,0.1446,0.1425,0.1455,0.1503,0.1533,0.1543,0.1551,0.158,0.1591,0.1461,0.1461,0.1462,0,0.1217,0.126,0.1243,0.1277,0.129,0.1258,0.13,0.1309,0.1329,0.1338,0.1316,0.1371,0.1379,0.1434,0.1454,0.1466,0.1475,0.1453,0.1543,0.1551,0.1559,0.1586,0.1597,0.1465,0.1464,0.1464,0.1464,0,0.1316,0.1346,0.1379,0.1396,0.1412,0.1451,0.1439,0.1457,0.1444,0.144,0.1484,0.1492,0.1515,0.1528,0.1516,0.1581,0.1568,0.1545,0.1506,0.1574,0.1599,0.161,0.1469,0.1468,0.1467,0.1466,0,0,0.1438,0.1443,0.1455,0.1461,0.147,0.1493,0.1529,0.1551,0.1566,0.158,0.1609,0.1648,0.1625,0.1637,0.1626,0.1653,0.1717,0.1625,0.1625,0.164,0.1786,0.1802,0.1815,0.1703,0.1705,0.1707,0.1784,0,0.1522,0.1582,0.1567,0.1627,0.1653,0.1622,0.1654,0.1662,0.1659,0.1681,0.1678,0.1705,0.1674,0.1681,0.1706,0.1704,0.1746,0.1698,0.173,0.1731,0.1725,0.1828,0.1846,0.1919,0.1794,0.1796,0.1797,0,0.1628,0.1642,0.1705,0.1706,0.1717,0.1745,0.1762,0.1784,0.1792,0.1788,0.18,0.1783,0.1818,0.1779,0.1826,0.1794,0.1806,0.1807,0.1809,0.1811,0.1767,0.1831,0.1942,0.1952,0.1813,0.1811,0.181,0,0.1707,0.1744,0.1785,0.1791,0.1795,0.1814,0.1817,0.1823,0.1836,0.1851,0.1859,0.1879,0.189,0.1905,0.1893,0.1866,0.1941,0.1902,0.1938,0.1938,0.1955,0.1954,0.2067,0.1965,0.1965,0.1965,0.1965,0,0.1801,0.184,0.182,0.1845,0.1887,0.1869,0.1911,0.191,0.1915,0.1939,0.1915,0.1938,0.1921,0.1943,0.1934,0.1973,0.1979,0.1976,0.1973,0.1977,0.1977,0.1984,0.1978,0.1968,0.1967,0.1966,0.1966,0,0.1898,0.1886,0.1928,0.1926,0.1927,0.1958,0.1956,0.1979,0.1973,0.2004,0.201,0.2002,0.2026,0.2015,0.2042,0.2035,0.2084,0.2076,0.2081,0.2078,0.2113,0.2109,0.2234,0.2249,0.2139,0.214,0.2141,0,0.1958,0.1986,0.1987,0.2,0.2003,0.2026,0.2038,0.202,0.2034,0.2044,0.2065,0.2087,0.2103,0.2143,0.2139,0.2158,0.2148,0.2191,0.2151,0.2154,0.2146,0.2144,0.2146,0.2198,0.22,0.2201,0.2202,0,0.2064,0.2056,0.2074,0.2089,0.2103,0.2115,0.2124,0.2137,0.2119,0.2136,0.2159,0.2171,0.2196,0.2217,0.2233,0.2236,0.2215,0.2214,0.2223,0.2227,0.2228,0.2225,0.21,0.2211,0.221,0.2209,0.2209,0.2209,0.2143,0.2165,0.2168,0.2188,0.2192,0.2201,0.2221,0.2216,0.2235,0.2252,0.2241,0.2268,0.2273,0.2292,0.2298,0.2318,0.2301,0.2315,0.2318,0.2321,0.2324,0.2225,0.2321,0.2321,0.2321,0.232,0.232,0,0.2246,0.2246,0.2264,0.2276,0.2291,0.2269,0.2277,0.2292,0.2315,0.2321,0.2336,0.2361,0.2381,0.2377,0.2395,0.2412,0.2403,0.2417,0.2415,0.2415,0.234,0.2329,0.2424,0.2424,0.2424,0.2424,0.2423,0.2423,0.2302,0.2338,0.233,0.2367,0.2366,0.239,0.2397,0.2404,0.2408,0.2437,0.2452,0.2449,0.2451,0.2468,0.2484,0.2483,0.249,0.2507,0.2502,0.2431,0.2421,0.2411,0.2401,0.2509,0.2509,0.2575,0.2576,0.2576]}]]